Regional Weather Roundup
Issued by NWS Upton, NY

Current Version | Previous Version | Graphics & Text | Print | Product List | Glossary Off
Versions: 1 2 3 4 5 6 7 8 9 10 11 12 13 14 15 16 17 18 19 20 21 22 23 24 25 26 27 28 29 30 31 32 33 34 35 36 37 38 39 40 41 42 43 44 45 46 47 48 49 50

912
ASUS41 KOKX 270709
RWROKX

REGIONAL WEATHER ROUNDUP
NATIONAL WEATHER SERVICE NEW YORK NY
300 AM EDT TUE JUN 27 2017

NOTE: "FAIR" INDICATES FEW OR NO CLOUDS BELOW 12,000 FEET WITH NO
SIGNIFICANT WEATHER AND/OR OBSTRUCTIONS TO VISIBILITY.

NYZ071-072-176-178-NJZ106-104-270800-
NEW YORK CITY METRO AREA

CITY           SKY/WX    TMP DP  RH WIND       PRES   REMARKS
Central Park   CLOUDY    68  49  50 N8        30.03R
Bronx Bot Gard   N/A     66  48  52 NW1       29.99F
LaGuardia APRT NOT AVBL
Kennedy INTL   NOT AVBL
Breezy Point     N/A     68 N/A N/A NW8         N/A
Newark/Liberty MOCLDY    68  50  52 N8        29.99S
Teterboro      NOT AVBL
$$

NYZ177-179-078>081-270800-
LONG ISLAND NEW YORK

CITY           SKY/WX    TMP DP  RH WIND       PRES   REMARKS
Jones Beach      N/A     64 N/A N/A W2          N/A
Matinecock PT  NOT AVBL
Farmingdale    NOT AVBL
MacArthur/ISP  NOT AVBL
Shirley        NOT AVBL
Mt Sinai Harb    N/A    N/A N/A N/A S7          N/A
Westhampton    NOT AVBL
East Hampton   FAIR      64  62  94 SW5       30.00R
Montauk          N/A     67  64  90 VRB7      30.01
$$

NYZ052-065-067-270800-
HUDSON VALLEY

CITY           SKY/WX    TMP DP  RH WIND       PRES   REMARKS
White Plains   NOT AVBL
Larchmont Harb   N/A     66 N/A N/A NW10        N/A
Croton O-T Hud   N/A     64 N/A N/A N6G13       N/A
Newburgh       MOCLDY    59  57  94 VRB6      30.02F
Montgomery     NOT AVBL
Poughkeepsie   NOT AVBL
Albany         CLOUDY    57  54  89 CALM      29.98F
$$

NJZ001-105-106-008-010-013-015-019>022-104-270800-
NEW JERSEY

CITY           SKY/WX    TMP DP  RH WIND       PRES   REMARKS
Newark/Liberty MOCLDY    68  50  52 N8        29.99S
Teterboro      NOT AVBL
Caldwell       NOT AVBL
Somerville     NOT AVBL
Linden         PTSUNNY   67  48  50 CALM      29.99S
Perth Amboy      N/A     66 N/A N/A N5          N/A
Sussex         NOT AVBL
Andover          N/A     58  54  86 NW3       30.00F
Trenton        NOT AVBL
Millville      NOT AVBL
Atlantic City  PTCLDY    67  61  81 S8        29.98F
Wrightstown    PTCLDY    61  55  80 E3        29.99F
Toms River     NOT AVBL
Belmar         NOT AVBL
$$

PAZ047>061-062-071-270800-
EASTERN PENNSYLVANIA

CITY           SKY/WX    TMP DP  RH WIND       PRES   REMARKS
Philadelphia   CLOUDY    64  57  78 NW8       30.01R
Allentown      NOT AVBL
Scranton       NOT AVBL
$$

CTZ002-004>006-009-010-012-RIZ004-006-007-MAZ004-011-015-270800-
SOUTHERN NEW ENGLAND
 IN CT

CITY           SKY/WX    TMP DP  RH WIND       PRES   REMARKS
Bradley INTL   PTCLDY    56  54  93 N6        30.01S
Hartford       CLEAR     61  55  81 N3        30.00R
Danbury        NOT AVBL
Wtrbury/Oxford MOCLDY    57  52  82 N7        30.01R
Bridgeport     NOT AVBL
Meriden        CLEAR     57  56  96 CALM      30.00R
New Haven      NOT AVBL
Chester        FAIR      64  63  94 S5        29.99S
Groton         CLEAR     58  56  93 CALM      29.99R
Wilimantic     CLEAR     58  55  90 N3        30.00S

 IN RI

CITY           SKY/WX    TMP DP  RH WIND       PRES   REMARKS
Providence     CLEAR     62  58  86 CALM      30.00S
Block Island   CLEAR     65  62  90 SW10      30.00S
Westerly       CLEAR     60  57  89 CALM      30.00S
 IN MA

CITY           SKY/WX    TMP DP  RH WIND       PRES   REMARKS
Boston         PTCLDY    65  52  62 S3        29.99R
Worcester      CLEAR     55  51  86 NW5       30.01R
Westfield      PTCLDY    56  55  97 CALM        N/A
Provincetown   CLEAR     60  57  89 S5        30.00F
Nantucket      CLEAR     60  58  92 S7        30.02S
$$

ANZ330-335-338-340-345-350-353-355-270800-
COASTAL MARINE OBSERVATIONS


STATION/POSITION TIME  SKY/WX   TEMP    WIND        PRES    VSBY  WAVE
                                AIR SEA DIR/SP/G                  HT/PER
                 (UTC)          (F)     (DEG/KT/KT) (MB)    (MI)  (FT/S)
NY HARB ENTRANCE 0550            68 67  210/  8/ 10 1015.1          2/ 4
20 S FIRE ISLAND 0650            70 69  210/ 10/ 12 1015.1          2/ 4
GREAT SOUTH BAY  0615            71 75  250/ 10/ 14   N/A
23 SSW MONTAUK P 0550            67 65              1016.1          2/ 7
15 E BARNEGAT LI 0630               65                N/A           2/ 8
HUDSON CANYON    0550            69 68  200/  6/  8 1016.0          2/ 8
KINGS POINT      0630            68 65  350/ 15/ 18 1015.6
EXECUTION ROCKS  0645            68     320/ 12/ 16   N/A
CENTRAL LI SOUND NOT AVBL
EASTERN LI SOUND NOT AVBL
ROBBINS REEF     0636                   340/ 14/ 16 1016.0
$$


>>>>>>>>>>>>>>>>>>>>>>>>>>>> KEY <<<<<<<<<<<<<<<<<<<<<<<<<<<
>                                                          <
>     SKY/WX - Sky Condition/Present Weather               <
>     TMP    - Temperature in Fahrenheit                   <
>     DP     - Dew Point in Fahrenheit                     <
>     RH     - Relative Humidity in Percent                <
>     WIND   - Direction (from) and Speed in MPH           <
>     PRES   - Mean Sea Level Pressure (inches of Hg)      <
>     WCI    - Wind Chill Index                            <
>     VSB    - VISIBILITY IN MILES                         <
>     HX     - HEAT INDEX                                  <
>     TC     - TEMPERATURE IN CELSIUS                      <
>     VRB    - VARIABLE WIND DIRECTION                     <
>                                                          <
>>>>>>>>>>>>>>>>>>>>>>>>>>>> KEY <<<<<<<<<<<<<<<<<<<<<<<<<<<




USA.gov is the U.S. government's official web portal to all federal, state and local government web resources and services.